FW5643 Weather Reports


Display with metric or nautical units.
time (UTC)temp
F
wind
direction
speed
MPH
gust
MPH
rain 1hr
in
rain 24hr
in
rain mn
in
humidity
%
barometer
mb
20260906214607 90 0 2.0 5.0 0.00 0.00 0.00 35 1015.6
20260906213103 90 244 1.0 4.0 0.00 0.00 0.00 35 1015.8
20260906211604 90 245 3.0 8.0 0.00 0.00 0.00 35 1016.0
20260906210109 89 78 1.0 7.0 0.00 0.00 0.00 36 1016.6
20260906204615 89 111 1.0 4.0 0.00 0.00 0.00 35 1016.7
20260906203104 89 0 1.0 7.0 0.00 0.00 0.00 36 1016.9
20260906201604 88 198 1.0 7.0 0.00 0.00 0.00 36 1016.9
20260906200106 88 34 2.0 4.0 0.00 0.00 0.00 38 1016.9
20260906194619 88 64 1.0 6.0 0.00 0.00 0.00 36 1017.0
20260906193105 87 59 2.0 6.0 0.00 0.00 0.00 41 1017.2
20260906191613 86 44 2.0 5.0 0.00 0.00 0.00 39 1017.3
20260906190105 85 32 1.0 5.0 0.00 0.00 0.00 40 1017.7
20260906184620 85 180 1.0 4.0 0.00 0.00 0.00 43 1018.0
20260906183115 84 0 1.0 5.0 0.00 0.00 0.00 48 1018.4
20260906181607 83 225 1.0 5.0 0.00 0.00 0.00 47 1018.6
20260906180132 82 72 0.0 4.0 0.00 0.00 0.00 52 1018.8
20260906174625 80 336 0.0 5.0 0.00 0.00 0.00 55 1019.2
20260906173108 78 72 0.0 3.0 0.00 0.00 0.00 58 1019.6
20260906171615 76 263 0.0 4.0 0.00 0.00 0.00 60 1019.7
20260906170122 76 50 1.0 3.0 0.00 0.00 0.00 61 1020.1
20260906164605 74 231 1.0 4.0 0.00 0.00 0.00 63 1020.3
20260906163117 74 0 0.0 2.0 0.00 0.00 0.00 64 1020.1
20260906161623 73 298 1.0 4.0 0.00 0.00 0.00 65 1020.0
20260906160106 72 30 0.0 3.0 0.00 0.00 0.00 67 1020.0
20260906154608 70 341 1.0 4.0 0.00 0.00 0.00 71 1020.0
20260906153121 70 352 0.0 3.0 0.00 0.00 0.00 70 1020.2
20260906151602 68 325 0.0 5.0 0.00 0.00 0.00 74 1020.1
20260906150110 68 303 0.0 4.0 0.00 0.00 0.00 74 1020.1
20260906144605 67 336 0.0 7.0 0.00 0.00 0.00 75 1020.1
20260906143106 66 302 2.0 4.0 0.00 0.00 0.00 76 1020.1
20260906141622 65 304 1.0 5.0 0.00 0.00 0.00 78 1020.3
20260906140103 64 300 1.0 3.0 0.00 0.00 0.00 80 1020.1
20260906134603 63 0 1.0 4.0 0.00 0.00 0.00 80 1020.0
20260906133112 62 300 1.0 3.0 0.00 0.00 0.00 80 1020.0
20260906131610 61 0 0.0 2.0 0.00 0.00 0.00 79 1019.9
20260906130106 61 0 0.0 1.0 0.00 0.00 0.00 80 1019.8
20260906124609 61 0 0.0 1.0 0.00 0.00 0.00 81 1019.6
20260906123109 61 0 0.0 2.0 0.00 0.00 0.00 81 1019.5
20260906121615 61 0 0.0 0.0 0.00 0.00 0.00 81 1019.4
20260906120115 61 0 0.0 0.0 0.00 0.00 0.00 80 1019.5
20260906114611 61 0 0.0 1.0 0.00 0.00 0.00 80 1019.6
20260906113103 61 0 0.0 1.0 0.00 0.00 0.00 81 1019.7
20260906111607 62 0 0.0 2.0 0.00 0.00 0.00 81 1019.5
20260906110103 62 0 0.0 3.0 0.00 0.00 0.00 82 1019.5
20260906104604 62 0 0.0 0.0 0.00 0.00 0.00 80 1019.4
20260906103109 62 0 0.0 1.0 0.00 0.00 0.00 79 1019.4
20260906101625 63 0 0.0 0.0 0.00 0.00 0.00 78 1019.4
20260906094607 64 0 0.0 1.0 0.00 0.00 0.00 75 1019.4
20260906093105 64 0 0.0 2.0 0.00 0.00 0.00 74 1019.4
20260906091603 65 52 0.0 1.0 0.00 0.00 0.00 71 1019.2
20260906090104 66 0 0.0 1.0 0.00 0.00 0.00 68 1018.8
20260906084606 67 12 0.0 2.0 0.00 0.00 0.00 66 1018.6
20260906083105 68 0 0.0 3.0 0.00 0.00 0.00 61 1018.5
20260906081606 69 0 0.0 3.0 0.00 0.00 0.00 58 1018.6
20260906080104 70 9 0.0 3.0 0.00 0.00 0.00 52 1018.6
20260906074605 70 41 1.0 3.0 0.00 0.00 0.00 48 1018.3
20260906073103 70 301 2.0 5.0 0.00 0.00 0.00 49 1018.6
20260906071607 70 307 1.0 3.0 0.00 0.00 0.00 50 1018.6
20260906070110 70 269 1.0 4.0 0.00 0.00 0.00 49 1018.4
20260906064603 71 0 0.0 2.0 0.00 0.00 0.00 50 1018.6
20260906063105 72 0 0.0 1.0 0.00 0.00 0.00 49 1018.7
20260906061606 72 0 0.0 0.0 0.00 0.00 0.00 49 1018.8
20260906060135 73 0 0.0 0.0 0.00 0.00 0.00 46 1018.2
20260906054616 73 0 0.0 0.0 0.00 0.00 0.00 46 1018.6
20260906053102 73 0 0.0 1.0 0.00 0.00 0.00 44 1019.1
20260906051605 73 0 0.0 2.0 0.00 0.00 0.00 44 1019.4
20260906050109 73 0 0.0 4.0 0.00 0.00 0.00 44 1019.4
20260906044602 73 232 0.0 3.0 0.00 0.00 0.00 45 1019.1
20260906043107 73 0 0.0 2.0 0.00 0.00 0.00 43 1018.5
20260906041602 73 0 0.0 1.0 0.00 0.00 0.00 42 1018.7
20260906040109 74 0 0.0 1.0 0.00 0.00 0.00 41 1018.3
20260906034607 74 360 0.0 1.0 0.00 0.00 0.00 40 1018.0
20260906033111 75 0 0.0 1.0 0.00 0.00 0.00 40 1018.0
20260906031604 75 0 0.0 1.0 0.00 0.00 0.00 39 1017.9
20260906030106 75 0 0.0 1.0 0.00 0.00 0.00 40 1017.3
20260906024621 75 0 0.0 1.0 0.00 0.00 0.00 40 1017.1
20260906023104 76 0 0.0 2.0 0.00 0.00 0.00 39 1017.1
20260906021607 78 0 0.0 1.0 0.00 0.00 0.00 37 1017.1
20260906020109 79 300 0.0 2.0 0.00 0.00 0.00 36 1017.1
20260906014607 80 0 1.0 3.0 0.00 0.00 0.00 35 1016.8
20260906013102 81 310 1.0 4.0 0.00 0.00 0.00 34 1016.6
20260906011602 82 303 1.0 5.0 0.00 0.00 0.00 33 1016.7
20260906010143 83 311 1.0 6.0 0.00 0.00 0.00 31 1016.6
20260906004617 84 319 1.0 4.0 0.00 0.00 0.00 30 1016.6
20260906003106 85 5 0.0 5.0 0.00 0.00 0.00 29 1016.6
20260906001607 86 5 0.0 4.0 0.00 0.00 0.00 28 1016.5
20260906000105 86 319 0.0 4.0 0.00 0.00 0.00 28 1016.4
20260905234610 86 360 0.0 2.0 0.00 0.00 0.00 29 1016.4
20260905233106 87 0 0.0 3.0 0.00 0.00 0.00 27 1016.3
20260905231619 87 0 0.0 1.0 0.00 0.00 0.00 28 1016.3
20260905230103 89 0 0.0 2.0 0.00 0.00 0.00 26 1016.1
20260905224604 91 86 0.0 3.0 0.00 0.00 0.00 25 1016.1
20260905223103 91 9 1.0 3.0 0.00 0.00 0.00 26 1016.1
20260905221606 90 0 0.0 3.0 0.00 0.00 0.00 25 1016.2
20260905220106 92 99 1.0 5.0 0.00 0.00 0.00 25 1016.4